| time (UTC) | temp F | wind direction | speed knots | gust knots | rain 1hr in | rain 24hr in | rain mn in | humidity % | barometer mb |
| 20260507093508 | 45 | 29 | 0.0 | 0.9 | 0.00 | 0.00 | 0.00 | 78 | 1010.4 |
| 20260507093007 | 46 | 30 | 0.9 | 1.7 | 0.00 | 0.00 | 0.00 | 78 | 1010.5 |
| 20260507092503 | 46 | 29 | 0.0 | 0.0 | 0.00 | 0.00 | 0.00 | 77 | 1010.6 |
| 20260507092000 | 46 | 29 | 0.9 | 0.9 | 0.00 | 0.00 | 0.00 | 77 | 1010.6 |
| 20260507091456 | 46 | 29 | 0.9 | 0.9 | 0.00 | 0.00 | 0.00 | 76 | 1010.5 |
| 20260507090952 | 46 | 26 | 0.0 | 0.9 | 0.00 | 0.00 | 0.00 | 75 | 1010.4 |
| 20260507090448 | 46 | 26 | 0.0 | 0.9 | 0.00 | 0.00 | 0.00 | 75 | 1010.4 |
| 20260507085945 | 47 | 26 | 0.9 | 0.9 | 0.00 | 0.00 | 0.00 | 75 | 1010.7 |
| 20260507085442 | 47 | 26 | 0.9 | 0.9 | 0.00 | 0.00 | 0.00 | 75 | 1011.0 |
| 20260507084939 | 47 | 25 | 0.9 | 1.7 | 0.00 | 0.00 | 0.00 | 75 | 1010.8 |
| 20260507084436 | 46 | 25 | 0.9 | 1.7 | 0.00 | 0.00 | 0.00 | 74 | 1011.0 |
| 20260507083933 | 46 | 25 | 0.9 | 0.9 | 0.00 | 0.00 | 0.00 | 74 | 1011.0 |
| 20260507083429 | 47 | 25 | 0.9 | 1.7 | 0.00 | 0.00 | 0.00 | 73 | 1011.0 |
| 20260507082925 | 47 | 25 | 0.9 | 0.9 | 0.00 | 0.00 | 0.00 | 73 | 1011.2 |
| 20260507082421 | 47 | 24 | 0.9 | 1.7 | 0.00 | 0.00 | 0.00 | 72 | 1011.1 |
| 20260507081918 | 47 | 24 | 0.9 | 1.7 | 0.00 | 0.00 | 0.00 | 71 | 1011.3 |
| 20260507081414 | 47 | 24 | 0.9 | 1.7 | 0.00 | 0.00 | 0.00 | 71 | 1011.3 |
| 20260507080911 | 47 | 24 | 0.9 | 1.7 | 0.00 | 0.00 | 0.00 | 71 | 1011.4 |
| 20260507080408 | 46 | 24 | 0.9 | 0.9 | 0.00 | 0.00 | 0.00 | 71 | 1011.2 |
| 20260507075903 | 46 | 24 | 0.9 | 0.9 | 0.00 | 0.00 | 0.00 | 71 | 1011.1 |
| 20260507075359 | 0 | 0.0 | 0.0 | 0.00 | 0.00 | 0.00 | 1011.8 | ||
| 20260507074856 | 47 | 24 | 1.7 | 1.7 | 0.00 | 0.00 | 0.00 | 68 | 1011.5 |
| 20260507074353 | 47 | 24 | 1.7 | 1.7 | 0.00 | 0.00 | 0.00 | 68 | 1011.6 |
| 20260507073850 | 47 | 24 | 1.7 | 1.7 | 0.00 | 0.00 | 0.00 | 68 | 1011.5 |
| 20260507073347 | 0 | 0.0 | 0.0 | 0.00 | 0.00 | 0.00 | 1011.8 | ||
| 20260507072844 | 46 | 24 | 0.0 | 0.0 | 0.00 | 0.00 | 0.00 | 65 | 1011.5 |
| 20260507072341 | 46 | 24 | 0.0 | 0.0 | 0.00 | 0.00 | 0.00 | 65 | 1011.7 |
| 20260507071839 | 46 | 24 | 0.0 | 0.0 | 0.00 | 0.00 | 0.00 | 65 | 1012.1 |
| 20260507071336 | 47 | 24 | 0.9 | 0.9 | 0.00 | 0.00 | 0.00 | 65 | 1012.0 |
| 20260507070832 | 47 | 24 | 0.9 | 1.7 | 0.00 | 0.00 | 0.00 | 64 | 1012.0 |
| 20260507070329 | 47 | 23 | 0.9 | 1.7 | 0.00 | 0.00 | 0.00 | 63 | 1012.1 |
| 20260507065826 | 46 | 24 | 0.9 | 1.7 | 0.00 | 0.00 | 0.00 | 63 | 1012.1 |
| 20260507065323 | 46 | 24 | 0.0 | 0.9 | 0.00 | 0.00 | 0.00 | 64 | 1012.5 |
| 20260507064820 | 46 | 24 | 0.9 | 0.9 | 0.00 | 0.00 | 0.00 | 64 | 1012.3 |
| 20260507064318 | 46 | 24 | 0.0 | 0.0 | 0.00 | 0.00 | 0.00 | 62 | 1012.4 |
| 20260507063816 | 46 | 24 | 0.0 | 0.0 | 0.00 | 0.00 | 0.00 | 62 | 1012.5 |
| 20260507063313 | 46 | 24 | 0.9 | 0.9 | 0.00 | 0.00 | 0.00 | 61 | 1012.3 |
| 20260507062809 | 0 | 0.0 | 0.0 | 0.00 | 0.00 | 0.00 | 1012.3 | ||
| 20260507062306 | 44 | 24 | 0.0 | 0.9 | 0.00 | 0.00 | 0.00 | 59 | 1012.6 |
| 20260507061804 | 44 | 24 | 0.0 | 0.9 | 0.00 | 0.00 | 0.00 | 59 | 1012.6 |
| 20260507061302 | 44 | 24 | 0.0 | 0.9 | 0.00 | 0.00 | 0.00 | 59 | 1012.5 |
| 20260507060800 | 44 | 24 | 0.0 | 0.0 | 0.00 | 0.00 | 0.00 | 59 | 1012.7 |
| 20260507060256 | 44 | 24 | 0.0 | 0.0 | 0.00 | 0.00 | 0.00 | 59 | 1012.7 |
| 20260507055753 | 44 | 24 | 0.0 | 0.0 | 0.00 | 0.00 | 0.00 | 58 | 1012.7 |
| 20260507055248 | 44 | 24 | 0.0 | 0.9 | 0.00 | 0.00 | 0.00 | 58 | 1012.8 |
| 20260507054745 | 44 | 24 | 0.0 | 0.9 | 0.00 | 0.00 | 0.00 | 60 | 1012.6 |
| 20260507054242 | 44 | 24 | 0.0 | 0.9 | 0.00 | 0.00 | 0.00 | 60 | 1013.0 |
| 20260507053739 | 0 | 0.0 | 0.0 | 0.00 | 0.00 | 0.00 | 1012.7 | ||
| 20260507053236 | 0 | 0.0 | 0.0 | 0.00 | 0.00 | 0.00 | 1012.8 | ||
| 20260507052735 | 0 | 0.0 | 0.0 | 0.00 | 0.00 | 0.00 | 1012.7 | ||
| 20260507052231 | 0 | 0.0 | 0.0 | 0.00 | 0.00 | 0.00 | 1012.7 | ||
| 20260507051730 | 0 | 0.0 | 0.0 | 0.00 | 0.00 | 0.00 | 1012.7 | ||
| 20260507051226 | 0 | 0.0 | 0.0 | 0.00 | 0.00 | 0.00 | 1013.0 | ||
| 20260507050722 | 0 | 0.0 | 0.0 | 0.00 | 0.00 | 0.00 | 1012.9 | ||
| 20260507050220 | 0 | 0.0 | 0.0 | 0.00 | 0.00 | 0.00 | 1012.7 | ||
| 20260507045716 | 0 | 0.0 | 0.0 | 0.00 | 0.00 | 0.00 | 1012.9 | ||
| 20260507045212 | 0 | 0.0 | 0.0 | 0.00 | 0.00 | 0.00 | 1012.7 | ||
| 20260507044710 | 0 | 0.0 | 0.0 | 0.00 | 0.00 | 0.00 | 1012.7 | ||
| 20260507044206 | 0 | 0.0 | 0.0 | 0.00 | 0.00 | 0.00 | 1012.9 | ||
| 20260507043703 | 0 | 0.0 | 0.0 | 0.00 | 0.00 | 0.00 | 1012.8 | ||
| 20260507043200 | 0 | 0.0 | 0.0 | 0.00 | 0.00 | 0.00 | 1013.0 | ||
| 20260507042656 | 0 | 0.0 | 0.0 | 0.00 | 0.00 | 0.00 | 1013.1 | ||
| 20260507042151 | 0 | 0.0 | 0.0 | 0.00 | 0.00 | 0.00 | 1012.8 | ||
| 20260507041648 | 0 | 0.0 | 0.0 | 0.00 | 0.00 | 0.00 | 1012.9 | ||
| 20260507041144 | 0 | 0.0 | 0.0 | 0.00 | 0.00 | 0.00 | 1013.1 | ||
| 20260507040642 | 0 | 0.0 | 0.0 | 0.00 | 0.00 | 0.00 | 1012.8 | ||
| 20260507040138 | 0 | 0.0 | 0.0 | 0.00 | 0.00 | 0.00 | 1013.1 | ||
| 20260507035634 | 0 | 0.0 | 0.0 | 0.00 | 0.00 | 0.00 | 1013.2 | ||
| 20260507035130 | 0 | 0.0 | 0.0 | 0.00 | 0.00 | 0.00 | 1013.2 | ||
| 20260507034627 | 0 | 0.0 | 0.0 | 0.00 | 0.00 | 0.00 | 1013.3 | ||
| 20260507034125 | 0 | 0.0 | 0.0 | 0.00 | 0.00 | 0.00 | 1013.2 | ||
| 20260507033623 | 0 | 0.0 | 0.0 | 0.00 | 0.00 | 0.00 | 1013.4 | ||
| 20260507033120 | 0 | 0.0 | 0.0 | 0.00 | 0.00 | 0.00 | 1013.3 | ||
| 20260507032617 | 44 | 24 | 0.0 | 0.0 | 0.00 | 0.00 | 0.00 | 57 | 1013.3 |
| 20260507032113 | 44 | 24 | 0.0 | 0.0 | 0.00 | 0.00 | 0.00 | 57 | 1013.2 |
| 20260507031610 | 44 | 24 | 0.0 | 0.0 | 0.00 | 0.00 | 0.00 | 57 | 1013.5 |
| 20260507031106 | 44 | 24 | 0.0 | 0.0 | 0.00 | 0.00 | 0.00 | 54 | 1013.2 |
| 20260507030603 | 0 | 0.0 | 0.0 | 0.00 | 0.00 | 0.00 | 1013.2 | ||
| 20260507030101 | 46 | 24 | 0.0 | 0.0 | 0.00 | 0.00 | 0.00 | 51 | 1013.4 |
| 20260507025558 | 46 | 24 | 0.0 | 0.0 | 0.00 | 0.00 | 0.00 | 51 | 1013.4 |
| 20260507025055 | 46 | 24 | 0.0 | 0.0 | 0.00 | 0.00 | 0.00 | 51 | 1013.4 |
| 20260507024553 | 47 | 24 | 0.0 | 0.0 | 0.00 | 0.00 | 0.00 | 53 | 1013.3 |
| 20260507024050 | 47 | 24 | 0.0 | 0.0 | 0.00 | 0.00 | 0.00 | 53 | 1013.0 |
| 20260507023545 | 47 | 24 | 0.0 | 0.0 | 0.00 | 0.00 | 0.00 | 54 | 1013.2 |
| 20260507023043 | 47 | 24 | 0.0 | 0.0 | 0.00 | 0.00 | 0.00 | 54 | 1013.3 |
| 20260507022540 | 0 | 0.0 | 0.0 | 0.00 | 0.00 | 0.00 | 1013.1 | ||
| 20260507022035 | 0 | 0.0 | 0.0 | 0.00 | 0.00 | 0.00 | 1012.9 | ||
| 20260507021531 | 0 | 0.0 | 0.0 | 0.00 | 0.00 | 0.00 | 1012.9 | ||
| 20260507021028 | 0 | 0.0 | 0.0 | 0.00 | 0.00 | 0.00 | 1013.1 | ||
| 20260507020525 | 0 | 0.0 | 0.0 | 0.00 | 0.00 | 0.00 | 1013.0 | ||
| 20260507020022 | 0 | 0.0 | 0.0 | 0.00 | 0.00 | 0.00 | 1013.1 | ||
| 20260507015520 | 0 | 0.0 | 0.0 | 0.00 | 0.00 | 0.00 | 1013.2 | ||
| 20260507015018 | 0 | 0.0 | 0.0 | 0.00 | 0.00 | 0.00 | 1013.0 | ||
| 20260507014514 | 0 | 0.0 | 0.0 | 0.00 | 0.00 | 0.00 | 1012.9 | ||
| 20260507014010 | 0 | 0.0 | 0.0 | 0.00 | 0.00 | 0.00 | 1013.0 | ||
| 20260507013506 | 0 | 0.0 | 0.0 | 0.00 | 0.00 | 0.00 | 1013.0 | ||
| 20260507013004 | 54 | 24 | 0.0 | 0.0 | 0.00 | 0.00 | 0.00 | 38 | 1013.0 |
| 20260507012501 | 54 | 24 | 0.0 | 0.0 | 0.00 | 0.00 | 0.00 | 38 | 1013.0 |
| 20260507011957 | 54 | 24 | 0.0 | 0.0 | 0.00 | 0.00 | 0.00 | 38 | 1013.4 |
| 20260507011454 | 55 | 23 | 0.0 | 0.0 | 0.00 | 0.00 | 0.00 | 37 | 1012.9 |
| 20260507010950 | 55 | 23 | 0.0 | 0.0 | 0.00 | 0.00 | 0.00 | 37 | 1012.9 |
| 20260507010445 | 56 | 23 | 0.0 | 0.0 | 0.00 | 0.00 | 0.00 | 32 | 1013.1 |
| 20260507005942 | 56 | 23 | 0.0 | 0.0 | 0.00 | 0.00 | 0.00 | 31 | 1013.3 |
| 20260507005439 | 57 | 23 | 0.0 | 0.0 | 0.00 | 0.00 | 0.00 | 31 | 1013.1 |
| 20260507004935 | 57 | 23 | 0.0 | 0.9 | 0.00 | 0.00 | 0.00 | 30 | 1013.0 |
| 20260507004432 | 57 | 22 | 0.0 | 0.9 | 0.00 | 0.00 | 0.00 | 29 | 1013.0 |
| 20260507003930 | 58 | 23 | 0.0 | 0.0 | 0.00 | 0.00 | 0.00 | 28 | 1013.2 |
| 20260507003425 | 58 | 22 | 0.9 | 0.9 | 0.00 | 0.00 | 0.00 | 30 | 1013.1 |
| 20260507002920 | 58 | 23 | 0.0 | 0.0 | 0.00 | 0.00 | 0.00 | 30 | 1013.1 |
| 20260507002417 | 58 | 23 | 0.9 | 0.9 | 0.00 | 0.00 | 0.00 | 31 | 1013.3 |
| 20260507001914 | 59 | 23 | 0.0 | 0.9 | 0.00 | 0.00 | 0.00 | 28 | 1013.1 |
| 20260507001410 | 59 | 11 | 0.0 | 0.9 | 0.00 | 0.00 | 0.00 | 28 | 1013.0 |
| 20260507000908 | 59 | 17 | 0.0 | 0.0 | 0.00 | 0.00 | 0.00 | 28 | 1013.2 |
| 20260507000405 | 59 | 22 | 0.0 | 0.0 | 0.00 | 0.00 | 0.00 | 28 | 1013.3 |
| 20260506235859 | 59 | 22 | 0.0 | 0.0 | 0.00 | 0.00 | 0.00 | 30 | 1013.2 |
| 20260506235357 | 59 | 22 | 0.0 | 0.0 | 0.00 | 0.00 | 0.00 | 32 | 1013.2 |
| 20260506234852 | 59 | 23 | 0.0 | 0.0 | 0.00 | 0.00 | 0.00 | 27 | 1013.3 |
| 20260506234350 | 59 | 8 | 0.0 | 0.0 | 0.00 | 0.00 | 0.00 | 27 | 1013.4 |
| 20260506233848 | 59 | 9 | 0.0 | 0.9 | 0.00 | 0.00 | 0.00 | 28 | 1013.6 |
| 20260506233343 | 59 | 5 | 0.0 | 0.9 | 0.00 | 0.00 | 0.00 | 28 | 1013.7 |
| 20260506232840 | 58 | 8 | 0.9 | 0.9 | 0.00 | 0.00 | 0.00 | 29 | 1013.7 |
| 20260506232336 | 58 | 8 | 0.0 | 0.0 | 0.00 | 0.00 | 0.00 | 30 | 1013.6 |
| 20260506231833 | 58 | 0 | 0.0 | 0.0 | 0.00 | 0.00 | 0.00 | 29 | 1013.5 |
| 20260506231331 | 59 | 347 | 0.9 | 1.7 | 0.00 | 0.00 | 0.00 | 28 | 1013.7 |
| 20260506230828 | 59 | 16 | 0.9 | 0.9 | 0.00 | 0.00 | 0.00 | 27 | 1013.9 |
| 20260506230325 | 58 | 2 | 0.0 | 0.0 | 0.00 | 0.00 | 0.00 | 31 | 1013.8 |
| 20260506225820 | 59 | 324 | 0.9 | 0.9 | 0.00 | 0.00 | 0.00 | 29 | 1013.9 |
| 20260506225318 | 60 | 322 | 4.3 | 6.1 | 0.00 | 0.00 | 0.00 | 27 | 1013.7 |
| 20260506224815 | 59 | 28 | 0.0 | 0.9 | 0.00 | 0.00 | 0.00 | 28 | 1013.7 |
| 20260506224312 | 60 | 312 | 2.6 | 4.3 | 0.00 | 0.00 | 0.00 | 27 | 1013.9 |
| 20260506223808 | 60 | 1 | 0.0 | 0.9 | 0.00 | 0.00 | 0.00 | 29 | 1013.7 |
| 20260506223303 | 60 | 336 | 1.7 | 1.7 | 0.00 | 0.00 | 0.00 | 28 | 1013.8 |
| 20260506222800 | 60 | 17 | 0.0 | 0.0 | 0.00 | 0.00 | 0.00 | 27 | 1014.0 |
| 20260506222255 | 60 | 315 | 0.9 | 0.9 | 0.00 | 0.00 | 0.00 | 28 | 1014.0 |
| 20260506221749 | 60 | 357 | 0.9 | 0.9 | 0.00 | 0.00 | 0.00 | 28 | 1014.0 |
| 20260506221246 | 60 | 333 | 2.6 | 2.6 | 0.00 | 0.00 | 0.00 | 27 | 1014.0 |
| 20260506220744 | 60 | 12 | 0.9 | 1.7 | 0.00 | 0.00 | 0.00 | 29 | 1014.2 |
| 20260506220238 | 60 | 333 | 2.6 | 2.6 | 0.00 | 0.00 | 0.00 | 27 | 1014.1 |
| 20260506215735 | 60 | 293 | 2.6 | 2.6 | 0.00 | 0.00 | 0.00 | 28 | 1014.1 |
| 20260506215230 | 60 | 300 | 0.0 | 0.0 | 0.00 | 0.00 | 0.00 | 31 | 1014.3 |
| 20260506214727 | 60 | 30 | 0.0 | 0.9 | 0.00 | 0.00 | 0.00 | 30 | 1014.2 |
| 20260506214225 | 60 | 27 | 0.0 | 0.9 | 0.00 | 0.00 | 0.00 | 28 | 1014.4 |
| 20260506213723 | 59 | 11 | 1.7 | 2.6 | 0.00 | 0.00 | 0.00 | 29 | 1014.1 |
| 20260506213220 | 59 | 12 | 0.0 | 0.9 | 0.00 | 0.00 | 0.00 | 29 | 1014.3 |
| 20260506212717 | 59 | 296 | 0.9 | 1.7 | 0.00 | 0.00 | 0.00 | 28 | 1014.2 |
| 20260506212212 | 59 | 359 | 0.9 | 1.7 | 0.00 | 0.00 | 0.00 | 28 | 1014.3 |
| 20260506211708 | 60 | 341 | 1.7 | 1.7 | 0.00 | 0.00 | 0.00 | 31 | 1014.5 |
| 20260506211204 | 59 | 343 | 0.9 | 1.7 | 0.00 | 0.00 | 0.00 | 31 | 1014.7 |
| 20260506210701 | 59 | 340 | 0.9 | 0.9 | 0.00 | 0.00 | 0.00 | 31 | 1014.8 |
| 20260506210158 | 61 | 311 | 1.7 | 1.7 | 0.00 | 0.00 | 0.00 | 29 | 1014.7 |
| 20260506205655 | 59 | 341 | 2.6 | 2.6 | 0.00 | 0.00 | 0.00 | 28 | 1014.7 |
| 20260506205150 | 60 | 323 | 2.6 | 2.6 | 0.00 | 0.00 | 0.00 | 29 | 1014.8 |
| 20260506204648 | 59 | 337 | 2.6 | 2.6 | 0.00 | 0.00 | 0.00 | 31 | 1014.8 |
| 20260506204145 | 59 | 337 | 2.6 | 2.6 | 0.00 | 0.00 | 0.00 | 31 | 1015.4 |
| 20260506203643 | 60 | 330 | 0.9 | 0.9 | 0.00 | 0.00 | 0.00 | 33 | 1015.0 |
| 20260506203139 | 61 | 335 | 0.9 | 1.7 | 0.00 | 0.00 | 0.00 | 31 | 1015.1 |
| 20260506202638 | 61 | 336 | 2.6 | 4.3 | 0.00 | 0.00 | 0.00 | 29 | 1015.1 |
| 20260506202133 | 60 | 332 | 1.7 | 2.6 | 0.00 | 0.00 | 0.00 | 30 | 1015.2 |
| 20260506201631 | 60 | 333 | 0.9 | 0.9 | 0.00 | 0.00 | 0.00 | 28 | 1015.1 |
| 20260506201127 | 60 | 346 | 1.7 | 1.7 | 0.00 | 0.00 | 0.00 | 30 | 1015.5 |
| 20260506200624 | 60 | 1 | 0.0 | 0.9 | 0.00 | 0.00 | 0.00 | 29 | 1015.4 |
| 20260506200120 | 59 | 307 | 0.9 | 0.9 | 0.00 | 0.00 | 0.00 | 33 | 1015.5 |
| 20260506195617 | 59 | 329 | 0.9 | 1.7 | 0.00 | 0.00 | 0.00 | 32 | 1015.7 |
| 20260506195113 | 59 | 343 | 0.0 | 0.9 | 0.00 | 0.00 | 0.00 | 33 | 1015.7 |
| 20260506194611 | 59 | 2 | 0.9 | 0.9 | 0.00 | 0.00 | 0.00 | 31 | 1015.6 |
| 20260506194107 | 60 | 341 | 2.6 | 2.6 | 0.00 | 0.00 | 0.00 | 31 | 1015.7 |
| 20260506193605 | 60 | 311 | 1.7 | 2.6 | 0.00 | 0.00 | 0.00 | 32 | 1015.9 |
| 20260506193102 | 61 | 50 | 0.0 | 0.9 | 0.00 | 0.00 | 0.00 | 33 | 1015.8 |
| 20260506192559 | 60 | 331 | 0.9 | 1.7 | 0.00 | 0.00 | 0.00 | 30 | 1015.7 |
| 20260506192055 | 59 | 0 | 0.9 | 0.9 | 0.00 | 0.00 | 0.00 | 31 | 1015.8 |
| 20260506191551 | 59 | 358 | 0.9 | 0.9 | 0.00 | 0.00 | 0.00 | 31 | 1015.6 |
| 20260506191047 | 59 | 39 | 0.9 | 1.7 | 0.00 | 0.00 | 0.00 | 34 | 1015.7 |
| 20260506190545 | 58 | 1 | 1.7 | 1.7 | 0.00 | 0.00 | 0.00 | 31 | 1015.5 |
| 20260506190042 | 58 | 39 | 0.9 | 0.9 | 0.00 | 0.00 | 0.00 | 31 | 1015.7 |
| 20260506185539 | 58 | 338 | 0.9 | 0.9 | 0.00 | 0.00 | 0.00 | 31 | 1015.8 |
| 20260506185035 | 57 | 328 | 2.6 | 4.3 | 0.00 | 0.00 | 0.00 | 34 | 1016.1 |
| 20260506184533 | 58 | 341 | 0.0 | 0.0 | 0.00 | 0.00 | 0.00 | 30 | 1016.0 |
| 20260506184030 | 59 | 23 | 0.0 | 0.9 | 0.00 | 0.00 | 0.00 | 37 | 1015.9 |
| 20260506183526 | 57 | 333 | 0.9 | 1.7 | 0.00 | 0.00 | 0.00 | 33 | 1016.1 |
| 20260506183023 | 58 | 311 | 0.9 | 1.7 | 0.00 | 0.00 | 0.00 | 31 | 1016.1 |
| 20260506182520 | 57 | 15 | 0.0 | 0.0 | 0.00 | 0.00 | 0.00 | 31 | 1016.2 |
| 20260506182017 | 57 | 0 | 0.9 | 0.9 | 0.00 | 0.00 | 0.00 | 33 | 1016.2 |
| 20260506181515 | 57 | 36 | 0.9 | 2.6 | 0.00 | 0.00 | 0.00 | 31 | 1016.1 |
| 20260506181012 | 56 | 351 | 1.7 | 1.7 | 0.00 | 0.00 | 0.00 | 32 | 1016.6 |
| 20260506180508 | 57 | 0 | 0.9 | 1.7 | 0.00 | 0.00 | 0.00 | 32 | 1016.2 |
| 20260506180006 | 57 | 20 | 0.0 | 0.9 | 0.00 | 0.00 | 0.00 | 32 | 1016.3 |
| 20260506175501 | 57 | 356 | 0.9 | 0.9 | 0.00 | 0.00 | 0.00 | 34 | 1016.8 |
| 20260506174958 | 58 | 298 | 2.6 | 5.2 | 0.00 | 0.00 | 0.00 | 33 | 1016.7 |
| 20260506174456 | 57 | 304 | 3.5 | 4.3 | 0.00 | 0.00 | 0.00 | 32 | 1016.7 |
| 20260506173952 | 56 | 332 | 1.7 | 2.6 | 0.00 | 0.00 | 0.00 | 35 | 1016.8 |
| 20260506173450 | 57 | 318 | 3.5 | 5.2 | 0.00 | 0.00 | 0.00 | 36 | 1016.7 |
| 20260506172946 | 57 | 32 | 0.9 | 0.9 | 0.00 | 0.00 | 0.00 | 34 | 1016.6 |
| 20260506172444 | 57 | 10 | 1.7 | 2.6 | 0.00 | 0.00 | 0.00 | 32 | 1016.8 |
| 20260506171940 | 56 | 345 | 0.0 | 0.0 | 0.00 | 0.00 | 0.00 | 37 | 1016.8 |
| 20260506171438 | 55 | 345 | 0.9 | 1.7 | 0.00 | 0.00 | 0.00 | 36 | 1016.8 |
| 20260506170935 | 55 | 336 | 3.5 | 5.2 | 0.00 | 0.00 | 0.00 | 37 | 1016.9 |
| 20260506170431 | 54 | 33 | 0.9 | 2.6 | 0.00 | 0.00 | 0.00 | 34 | 1017.0 |
| 20260506165924 | 55 | 331 | 1.7 | 2.6 | 0.00 | 0.00 | 0.00 | 33 | 1017.2 |
| 20260506165422 | 55 | 348 | 0.0 | 0.9 | 0.00 | 0.00 | 0.00 | 37 | 1016.8 |
| 20260506164913 | 54 | 312 | 4.3 | 7.8 | 0.00 | 0.00 | 0.00 | 35 | 1017.1 |
| 20260506164409 | 54 | 305 | 1.7 | 2.6 | 0.00 | 0.00 | 0.00 | 38 | 1017.2 |
| 20260506163907 | 54 | 352 | 1.7 | 1.7 | 0.00 | 0.00 | 0.00 | 36 | 1017.3 |
| 20260506163402 | 53 | 347 | 0.9 | 0.9 | 0.00 | 0.00 | 0.00 | 38 | 1017.1 |
| 20260506162857 | 53 | 331 | 1.7 | 1.7 | 0.00 | 0.00 | 0.00 | 36 | 1017.4 |
| 20260506162355 | 53 | 348 | 0.0 | 0.9 | 0.00 | 0.00 | 0.00 | 40 | 1017.2 |
| 20260506161852 | 52 | 350 | 3.5 | 4.3 | 0.00 | 0.00 | 0.00 | 38 | 1017.4 |
| 20260506161349 | 52 | 343 | 0.9 | 0.9 | 0.00 | 0.00 | 0.00 | 39 | 1017.2 |
| 20260506160842 | 52 | 327 | 0.9 | 4.3 | 0.00 | 0.00 | 0.00 | 41 | 1017.2 |
| 20260506160338 | 52 | 336 | 2.6 | 5.2 | 0.00 | 0.00 | 0.00 | 38 | 1016.9 |
| 20260506155837 | 51 | 337 | 1.7 | 1.7 | 0.00 | 0.00 | 0.00 | 38 | 1017.3 |
| 20260506155333 | 52 | 321 | 0.9 | 0.9 | 0.00 | 0.00 | 0.00 | 38 | 1016.9 |
| 20260506153445 | 51 | 335 | 0.0 | 0.9 | 0.00 | 0.00 | 0.00 | 43 | 1017.3 |
| 20260506152942 | 52 | 335 | 0.9 | 0.9 | 0.00 | 0.00 | 0.00 | 42 | 1017.1 |
| 20260506152439 | 51 | 335 | 0.9 | 0.9 | 0.00 | 0.00 | 0.00 | 41 | 1017.2 |
| 20260506151938 | 51 | 335 | 0.9 | 1.7 | 0.00 | 0.00 | 0.00 | 42 | 1017.1 |
| 20260506151435 | 51 | 336 | 0.0 | 0.0 | 0.00 | 0.00 | 0.00 | 43 | 1017.1 |
| 20260506150932 | 51 | 292 | 0.0 | 0.9 | 0.00 | 0.00 | 0.00 | 41 | 1017.1 |
| 20260506150428 | 51 | 319 | 0.0 | 0.0 | 0.00 | 0.00 | 0.00 | 40 | 1016.8 |
| 20260506145925 | 50 | 323 | 2.6 | 2.6 | 0.00 | 0.00 | 0.00 | 40 | 1017.0 |
| 20260506145421 | 50 | 334 | 0.9 | 0.9 | 0.00 | 0.00 | 0.00 | 45 | 1017.0 |
| 20260506144919 | 49 | 335 | 1.7 | 1.7 | 0.00 | 0.00 | 0.00 | 43 | 1017.0 |
| 20260506144415 | 49 | 335 | 0.0 | 0.0 | 0.00 | 0.00 | 0.00 | 42 | 1017.2 |
| 20260506143914 | 49 | 335 | 0.0 | 0.0 | 0.00 | 0.00 | 0.00 | 42 | 1017.1 |
| 20260506143410 | 49 | 335 | 0.0 | 0.0 | 0.00 | 0.00 | 0.00 | 43 | 1017.1 |
| 20260506142909 | 49 | 334 | 0.0 | 0.0 | 0.00 | 0.00 | 0.00 | 43 | 1016.9 |
| 20260506142407 | 48 | 334 | 0.0 | 0.0 | 0.00 | 0.00 | 0.00 | 47 | 1017.0 |
| 20260506141904 | 48 | 334 | 0.0 | 0.0 | 0.00 | 0.00 | 0.00 | 47 | 1017.0 |
| 20260506141402 | 48 | 334 | 0.9 | 0.9 | 0.00 | 0.00 | 0.00 | 43 | 1017.1 |
| 20260506140900 | 48 | 332 | 0.9 | 1.7 | 0.00 | 0.00 | 0.00 | 45 | 1016.9 |
| 20260506140356 | 47 | 334 | 0.0 | 0.9 | 0.00 | 0.00 | 0.00 | 48 | 1017.0 |
| 20260506135854 | 47 | 335 | 0.9 | 1.7 | 0.00 | 0.00 | 0.00 | 48 | 1016.9 |
| 20260506135351 | 47 | 335 | 0.9 | 1.7 | 0.00 | 0.00 | 0.00 | 48 | 1016.8 |
| 20260506134847 | 46 | 334 | 0.9 | 1.7 | 0.00 | 0.00 | 0.00 | 51 | 1016.9 |
| 20260506134343 | 46 | 334 | 0.0 | 0.0 | 0.00 | 0.00 | 0.00 | 52 | 1016.8 |
| 20260506133840 | 45 | 334 | 0.0 | 0.0 | 0.00 | 0.00 | 0.00 | 52 | 1016.6 |
| 20260506133337 | 45 | 334 | 0.0 | 0.9 | 0.00 | 0.00 | 0.00 | 53 | 1016.8 |
| 20260506132834 | 45 | 334 | 0.9 | 1.7 | 0.00 | 0.00 | 0.00 | 52 | 1016.8 |
| 20260506132331 | 45 | 334 | 0.9 | 1.7 | 0.00 | 0.00 | 0.00 | 51 | 1016.5 |
| 20260506131829 | 44 | 334 | 0.9 | 1.7 | 0.00 | 0.00 | 0.00 | 53 | 1016.5 |
| 20260506131325 | 43 | 334 | 0.0 | 0.0 | 0.00 | 0.00 | 0.00 | 57 | 1016.5 |
| 20260506130822 | 43 | 334 | 0.9 | 0.9 | 0.00 | 0.00 | 0.00 | 58 | 1016.5 |
| 20260506130318 | 43 | 334 | 0.9 | 0.9 | 0.00 | 0.00 | 0.00 | 58 | 1016.4 |
| 20260506125816 | 43 | 334 | 0.0 | 0.9 | 0.00 | 0.00 | 0.00 | 57 | 1016.4 |
| 20260506125315 | 42 | 334 | 1.7 | 1.7 | 0.00 | 0.00 | 0.00 | 59 | 1016.2 |
| 20260506124813 | 42 | 334 | 0.0 | 0.0 | 0.00 | 0.00 | 0.00 | 61 | 1016.1 |
| 20260506124309 | 41 | 334 | 0.0 | 0.0 | 0.00 | 0.00 | 0.00 | 60 | 1016.2 |
| 20260506123807 | 41 | 334 | 0.0 | 0.0 | 0.00 | 0.00 | 0.00 | 64 | 1016.1 |
| 20260506123306 | 40 | 334 | 0.0 | 0.0 | 0.00 | 0.00 | 0.00 | 61 | 1015.9 |
| 20260506122802 | 37 | 334 | 0.0 | 0.0 | 0.00 | 0.00 | 0.00 | 74 | 1016.0 |
| 20260506122259 | 37 | 334 | 0.0 | 0.0 | 0.00 | 0.00 | 0.00 | 74 | 1015.7 |
| 20260506121757 | 37 | 334 | 0.0 | 0.0 | 0.00 | 0.00 | 0.00 | 75 | 1015.7 |
| 20260506121254 | 37 | 334 | 0.0 | 0.0 | 0.00 | 0.00 | 0.00 | 75 | 1015.8 |
| 20260506120751 | 37 | 334 | 0.0 | 0.0 | 0.00 | 0.00 | 0.00 | 75 | 1015.5 |
| 20260506120249 | 37 | 334 | 0.0 | 0.0 | 0.00 | 0.00 | 0.00 | 74 | 1015.2 |
| 20260506115746 | 36 | 334 | 0.0 | 0.0 | 0.00 | 0.00 | 0.00 | 75 | 1015.5 |
| 20260506115244 | 36 | 334 | 0.0 | 0.0 | 0.00 | 0.00 | 0.00 | 75 | 1015.4 |
| 20260506114742 | 36 | 334 | 0.0 | 0.0 | 0.00 | 0.00 | 0.00 | 75 | 1015.2 |
| 20260506114239 | 36 | 334 | 0.0 | 0.0 | 0.00 | 0.00 | 0.00 | 76 | 1015.1 |
| 20260506113738 | 36 | 334 | 0.0 | 0.0 | 0.00 | 0.00 | 0.00 | 75 | 1015.1 |
| 20260506113235 | 37 | 334 | 0.0 | 0.0 | 0.00 | 0.00 | 0.00 | 73 | 1015.0 |
| 20260506112731 | 37 | 334 | 0.0 | 0.0 | 0.00 | 0.00 | 0.00 | 73 | 1015.2 |
| 20260506112229 | 37 | 334 | 0.0 | 0.0 | 0.00 | 0.00 | 0.00 | 73 | 1015.2 |
| 20260506111726 | 37 | 334 | 0.0 | 0.0 | 0.00 | 0.00 | 0.00 | 72 | 1015.2 |
| 20260506111224 | 37 | 334 | 0.0 | 0.0 | 0.00 | 0.00 | 0.00 | 71 | 1015.1 |
| 20260506110721 | 38 | 334 | 0.0 | 0.0 | 0.00 | 0.00 | 0.00 | 69 | 1015.0 |
| 20260506110218 | 38 | 334 | 0.0 | 0.0 | 0.00 | 0.00 | 0.00 | 68 | 1014.9 |
| 20260506105715 | 38 | 334 | 0.0 | 0.0 | 0.00 | 0.00 | 0.00 | 68 | 1014.9 |
| 20260506105212 | 38 | 334 | 0.0 | 0.0 | 0.00 | 0.00 | 0.00 | 67 | 1015.1 |
| 20260506104710 | 38 | 334 | 0.0 | 0.0 | 0.00 | 0.00 | 0.00 | 67 | 1015.1 |
| 20260506104207 | 39 | 334 | 0.0 | 0.0 | 0.00 | 0.00 | 0.00 | 66 | 1014.9 |
| 20260506103704 | 40 | 334 | 0.0 | 0.0 | 0.00 | 0.00 | 0.00 | 65 | 1015.1 |
| 20260506103201 | 40 | 334 | 0.0 | 0.0 | 0.00 | 0.00 | 0.00 | 63 | 1015.0 |
| 20260506102659 | 40 | 334 | 0.0 | 0.0 | 0.00 | 0.00 | 0.00 | 63 | 1014.8 |
| 20260506102157 | 40 | 334 | 0.0 | 0.0 | 0.00 | 0.00 | 0.00 | 63 | 1014.8 |
| 20260506101653 | 40 | 334 | 0.0 | 0.0 | 0.00 | 0.00 | 0.00 | 63 | 1015.0 |
| 20260506101150 | 41 | 334 | 0.0 | 0.0 | 0.00 | 0.00 | 0.00 | 60 | 1014.7 |
| 20260506100648 | 41 | 334 | 0.0 | 0.0 | 0.00 | 0.00 | 0.00 | 59 | 1014.7 |
| 20260506100146 | 41 | 334 | 0.0 | 0.0 | 0.00 | 0.00 | 0.00 | 58 | 1014.5 |
| 20260506095644 | 41 | 334 | 0.0 | 0.0 | 0.00 | 0.00 | 0.00 | 58 | 1014.6 |
| 20260506095140 | 42 | 334 | 0.0 | 0.0 | 0.00 | 0.00 | 0.00 | 57 | 1014.5 |
| 20260506094638 | 42 | 334 | 0.0 | 0.0 | 0.00 | 0.00 | 0.00 | 56 | 1014.3 |
| 20260506094136 | 42 | 334 | 0.0 | 0.0 | 0.00 | 0.00 | 0.00 | 55 | 1014.3 |